[Date Prev][Date Next][Thread Prev][Thread Next] - [Date Index][Thread Index][Author Index]

2 Line ISS Keps 4-6



ISS
1 25544U 98067A   05095.96593206  .00018889  00000-0  15376-3 0  1787
2 25544 051.6444 270.5227 0005980 340.1323 157.4938 15.70687240364324
----
Via the sarex mailing list at AMSAT.ORG courtesy of AMSAT-NA.
To unsubscribe, send "unsubscribe sarex" to Majordomo@amsat.org



AMSAT Top AMSAT Home